Regional Weather Roundup
Issued by NWS

Home | Current Version | Previous Version | Graphics & Text | Print | Product List | Glossary On
Versions: 1 2 3 4 5 6 7 8 9 10 11 12 13 14 15 16 17 18 19 20 21 22 23 24 25 26 27 28 29 30 31 32 33 34 35 36 37 38 39 40 41 42 43 44 45 46 47 48 49 50
000
ASUS43 KLOT 040212
RWRIL

ILLINOIS REGIONAL WEATHER ROUNDUP
NATIONAL WEATHER SERVICE CHICAGO/ROMEOVILLE IL
800 PM CST SAT DEC 03 2016

NOTE: "FAIR" INDICATES FEW OR NO CLOUDS BELOW 12,000 FEET WITH NO
SIGNIFICANT WEATHER AND/OR OBSTRUCTIONS TO VISIBILITY.

* THESE STATIONS ARE NOT UNDER NWS QUALITY CONTROL. THEY ALSO MAY NOT
  REPORT WEATHER SUCH AS PRECIPITATION OR FOG.

ILZ001-002-007-009-015-016-024-040300-
NORTHWEST ILLINOIS

CITY           SKY/WX    TMP DP  RH WIND       PRES   REMARKS
MOLINE         PTCLDY    34  26  72 SE9       30.27F WCI  27
STERLING*      CLOUDY    33  28  81 VRB3      30.29R
SAVANNA*       CLOUDY    34  29  82 SE5       30.27F WCI  30
$$

ILZ003-004-008-010-011-017-018-040300-
NORTH CENTRAL ILLINOIS

CITY           SKY/WX    TMP DP  RH WIND       PRES   REMARKS
ROCKFORD       CLOUDY    33  26  75 SE3       30.30F
FREEPORT*      CLOUDY    32  28  86 CALM      30.29S
ROCHELLE*      PTCLDY    32  29  90 S6        30.29S WCI  26
DE KALB*       MOCLDY    31  28  86 CALM      30.28F
$$

ILZ005-006-012>014-019>023-040300-
NORTHEAST ILLINOIS

CITY           SKY/WX    TMP DP  RH WIND       PRES   REMARKS
CHICAGO-OHARE  CLOUDY    32  24  72 SW3       30.30R
CHICAGO-MIDWAY MOCLDY    32  23  69 S3        30.31S
AURORA         CLOUDY    31  26  82 SE5       30.29F WCI  26
LANSING*       CLOUDY    28  27  95 CALM      30.31S
JOLIET*        CLOUDY    30  27  88 CALM      30.30F
WAUKEGAN       CLOUDY    31  25  78 CALM      30.29S
DUPAGE AIRPORT PTCLDY    31  24  75 SE3       30.28F
KANKAKEE*      CLOUDY    30  26  85 CALM      30.32S
WHEELING       MOCLDY    29  24  82 CALM      30.31S
MORRIS*        CLOUDY    30  27  87 CALM      30.29F
ROMEOVILLE*    PTCLDY    29  28  96 SE6       30.29F WCI  23
NORTHERLY ISL    N/A     33  24  70 S5          N/A  WCI  29
$$

LMZ740>746-040300-
SOUTHERN LAKE MICHIGAN

STATION/POSITION SKY/WX   TEMP    WIND        PRES    VSBY  WAVE
                          AIR SEA DIR/SP/G                  HT/PER
                          (F)     (DEG/KT/KT) (MB)    (MI)  (FT/S)
SOUTHERN BUOY              35 48  300/  2/  6 1026.1          1/ 3
HARRISON CRIB              35     230/  1/  2   N/A
BURNHAM HARBOR             32     180/  3/  7   N/A
CALUMET HARBOR             32     200/  2/  3 1025.6F
BURNS HARBOR               34     210/  6/  7 1026.4F
MICHIGAN CITY              34     170/  9/ 10   N/A
$$

ILZ025>027-034>036-040-047-049-050-058-095>099-040300-
WEST-CENTRAL ILLINOIS

CITY           SKY/WX    TMP DP  RH WIND       PRES   REMARKS
QUINCY         CLOUDY    38  33  82 E8        30.24F WCI  32
GALESBURG*     CLOUDY    33  28  83 E3        30.28R
MACOMB*        CLOUDY    35  31  86 E7        30.30S WCI  29
JACKSONVILLE*  CLOUDY    37  33  84 E8        30.27F WCI  31
PITTSFIELD*    CLOUDY    39  34  82 E5        30.26F
$$

ILZ028>032-037-038-041>044-048-051>054-059>061-040300-
CENTRAL ILLINOIS

CITY           SKY/WX    TMP DP  RH WIND       PRES   REMARKS
PONTIAC        PTCLDY    32  30  93 S5        30.32R WCI  27
BLOOMINGTON    CLOUDY    30  28  92 E7        30.30F WCI  23
DECATUR        CLOUDY    34  30  85 E12       30.29F WCI  25
PEORIA         CLOUDY    34  27  75 E6        30.30S WCI  29
LACON*         CLOUDY    32  27  81 SE5       30.30S WCI  27
LINCOLN*       PTCLDY    34  32  91 E7        30.30S WCI  28
SPRINGFIELD    CLOUDY    37  31  78 E7        30.28F WCI  32
TAYLORVILLE    PTCLDY    35  31  86 E7        30.28F WCI  29
$$

ILZ033-039-045-046-055>057-062-063-040300-
EAST-CENTRAL ILLINOIS

CITY           SKY/WX    TMP DP  RH WIND       PRES   REMARKS
CHAMPAIGN      CLOUDY    32  27  81 NE7       30.31S WCI  26
RANTOUL*       PTCLDY    33  29  85 NE5       30.31S WCI  28
MATTOON        MOCLDY    34  28  79 E5        30.29F WCI  30
PARIS*         CLOUDY    33  29  87 CALM      30.32S
$$

ILZ079-100>102-040300-
SOUTHWEST ILLINOIS

CITY           SKY/WX    TMP DP  RH WIND       PRES   REMARKS
ALTON          CLOUDY    37  34  87 E3        30.27F
BELLEVILLE     CLOUDY    39  36  86 E3        30.25F
CAHOKIA*       CLOUDY    41  33  73 E5        30.25F
SPARTA*        CLOUDY    39  33  78 E5        30.26F
$$

ILZ064>066-069>071-074>076-080>082-084>086-088>090-092>094-040300-
SOUTH-CENTRAL ILLINOIS

CITY           SKY/WX    TMP DP  RH WIND       PRES   REMARKS
CARBONDALE     CLOUDY    41  33  73 E5        30.27F
CAIRO*         CLOUDY    42  32  68 E5        30.27F
EFFINGHAM*     CLOUDY    38  33  81 NE7       30.30F WCI  33
MARION         CLOUDY    43  34  70 CALM      30.27F
CENTRALIA*     CLOUDY    39  34  81 CALM      30.27F
SALEM*         CLOUDY    40  32  74 CALM      30.27F
METROPOLIS*    CLOUDY    42  32  68 CALM      30.29S
$$

ILZ067-068-072-073-078-083-087-091-040300-
SOUTHEAST ILLINOIS

CITY           SKY/WX    TMP DP  RH WIND       PRES   REMARKS
LAWRENCEVILLE  CLOUDY    38  30  73 NE7       30.31F WCI  33
FLORA*         CLOUDY    40  33  74 E6        30.30S
FAIRFIELD*     CLOUDY    40  34  79 CALM      30.28F
HARRISBURG*    CLOUDY    40  34  79 E5        30.29F
ROBINSON*      CLOUDY    34  31  87 NE5       30.33S WCI  30
CARMI*         CLOUDY    40  34  80 E6        30.29F
$$

ABBREVIATIONS USED IN REMARKS
   TC - TEMPERATURE IN CELSIUS
  WCI - WIND CHILL INDEX
   HX - HEAT INDEX
  VSB - VISIBILITY
$$




USA.gov is the U.S. government's official web portal to all federal, state and local government web resources and services.